DW0275 Weather Reports


Display with metric or nautical units.
time (UTC)temp
F
wind
direction
speed
MPH
gust
MPH
rain 1hr
in
rain 24hr
in
rain mn
in
humidity
%
barometer
mb
20260905031835 81 134 0.0 0.0 0.00 2.40 2.40 94 1016.5
20260905031548 80 134 0.0 0.0 0.00 2.40 2.40 94 1016.4
20260905031328 81 134 0.0 0.0 0.00 2.40 2.40 94 1016.5
20260905030824 81 134 0.0 0.0 0.00 2.40 2.40 94 1016.6
20260905030319 81 134 0.0 0.0 0.00 2.40 2.40 94 1016.6
20260905030016 80 134 0.0 0.0 0.00 2.40 2.40 94 1016.5
20260905025819 81 134 0.0 0.0 0.00 2.40 2.40 94 1016.6
20260905025316 81 134 0.0 0.0 0.00 2.40 2.40 94 1016.6
20260905024833 81 134 0.0 0.0 0.00 2.40 2.40 94 1016.5
20260905024539 80 134 0.0 0.0 0.00 2.40 2.40 94 1016.5
20260905024348 81 134 0.0 0.0 0.00 2.40 2.40 94 1016.6
20260905023825 81 134 0.0 0.0 0.00 2.40 2.40 94 1016.6
20260905023324 80 133 0.0 0.0 0.00 2.40 2.40 94 1016.6
20260905023006 80 134 0.0 0.0 0.00 2.40 2.40 94 1016.5
20260905022841 81 134 0.0 0.0 0.00 2.40 2.40 94 1016.7
20260905022317 81 134 0.0 0.0 0.00 2.40 2.40 94 1016.8
20260905021814 80 134 0.0 0.0 0.00 2.40 2.40 94 1016.7
20260905021526 80 134 0.0 0.0 0.00 2.40 2.40 94 1016.6
20260905021332 80 134 0.0 0.0 0.00 2.40 2.40 94 1016.6
20260905020830 80 134 0.0 0.0 0.00 2.40 2.40 93 1016.7
20260905020328 81 134 0.0 0.0 0.00 2.40 2.40 93 1016.7
20260905020021 80 134 0.0 0.0 0.00 2.40 2.40 94 1016.6
20260905015826 81 134 0.0 0.0 0.00 2.40 2.40 93 1016.6
20260905015324 81 134 0.0 0.0 0.00 2.40 2.40 93 1016.5
20260905014821 81 134 0.0 0.0 0.00 2.40 2.40 93 1016.6
20260905014558 80 134 0.0 0.0 0.00 2.40 2.40 93 1016.5
20260905014317 81 134 0.0 0.0 0.00 2.40 2.40 93 1016.5
20260905013814 81 134 0.0 0.0 0.00 2.40 2.40 93 1016.5
20260905013332 81 134 0.0 0.0 0.00 2.40 2.40 93 1016.5
20260905013040 80 134 0.0 0.0 0.00 2.40 2.40 93 1016.4
20260905012849 81 133 0.0 0.0 0.00 2.40 2.40 93 1016.4
20260905012325 81 134 0.0 0.0 0.00 2.40 2.40 93 1016.3
20260905011841 81 134 0.0 0.0 0.00 2.40 2.40 93 1016.3
20260905011539 81 134 0.0 0.0 0.00 2.40 2.40 93 1016.2
20260905011317 81 134 0.0 0.0 0.00 2.40 2.40 93 1016.3
20260905010815 81 134 0.0 0.0 0.00 2.40 2.40 93 1016.3
20260905010334 81 134 0.0 0.0 0.00 2.40 2.40 93 1016.3
20260905010027 81 134 0.0 0.0 0.00 2.40 2.40 93 1016.1
20260905005831 81 134 0.0 0.0 0.00 2.40 2.40 93 1016.2
20260905005327 81 134 0.0 0.0 0.00 2.40 2.40 93 1016.1
20260905004825 81 134 0.0 0.0 0.00 2.40 2.40 93 1015.9
20260905004517 81 134 0.0 0.0 0.00 2.40 2.40 93 1015.7
20260905004320 82 134 0.0 0.0 0.00 2.40 2.40 93 1015.9
20260905003819 82 134 0.0 0.0 0.00 2.40 2.40 93 1015.8
20260905003317 81 134 0.0 0.0 0.00 2.40 2.40 93 1015.9
20260905003040 81 134 0.0 0.0 0.00 2.40 2.40 93 1015.8
20260905002834 81 134 0.0 0.0 0.00 2.40 2.40 92 1015.9
20260905002330 81 134 0.0 0.0 0.00 2.40 2.40 92 1015.9
20260905001827 81 133 0.0 0.0 0.00 2.40 2.40 92 1015.9
20260905001532 81 134 0.0 0.0 0.00 2.40 2.40 92 1015.6
20260905001325 81 134 0.0 0.0 0.00 2.40 2.40 92 1015.7
20260905000821 81 134 0.0 0.0 0.00 2.40 2.40 92 1015.6
20260905000319 82 134 0.0 0.0 0.00 2.40 2.40 92 1015.7
20260905000020 81 134 0.0 0.0 0.00 2.40 2.40 92 1015.6
20260904235836 82 134 0.0 0.0 0.00 2.40 2.40 92 1015.7
20260904235329 82 134 0.0 0.0 0.00 2.40 2.40 92 1015.6
20260904234827 82 134 0.0 0.0 0.00 2.40 2.40 92 1015.6
20260904234547 81 134 0.0 0.0 0.00 2.40 2.40 92 1015.5
20260904234323 82 134 0.0 0.0 0.00 2.40 2.40 92 1015.4
20260904233841 82 133 0.0 0.0 0.00 2.40 2.40 92 1015.4
20260904233317 82 134 0.0 0.0 0.00 2.40 2.40 92 1015.3
20260904233038 82 133 0.0 0.0 0.02 2.40 2.40 91 1015.1
20260904232835 82 134 0.0 0.0 0.02 2.40 2.40 91 1015.3
20260904232330 82 134 0.0 0.0 0.02 2.40 2.40 91 1015.2
20260904231848 82 134 0.0 0.0 0.02 2.40 2.40 91 1015.1
20260904231541 82 134 0.0 0.0 0.02 2.40 2.40 91 1015.0
20260904231323 82 134 0.0 1.0 0.02 2.40 2.40 91 1015.1
20260904230822 82 133 0.0 1.0 0.02 2.40 2.40 92 1015.0
20260904230322 82 132 0.0 1.0 0.02 2.40 2.40 92 1014.9
20260904230008 81 122 0.0 0.0 0.02 2.40 2.40 92 1014.8
20260904225819 82 122 0.0 0.0 0.02 2.40 2.40 92 1014.9
20260904225318 82 116 0.0 0.0 0.02 2.40 2.40 92 1014.9
20260904224817 82 116 0.0 0.0 0.02 2.40 2.40 92 1014.9
20260904224609 81 116 0.0 1.0 0.02 2.40 2.40 92 1014.8
20260904224316 81 116 0.0 1.0 0.02 2.40 2.40 92 1014.9
20260904223816 81 116 0.0 2.0 0.02 2.40 2.40 92 1015.0
20260904223315 80 117 1.0 2.0 0.02 2.40 2.40 92 1015.1
20260904223040 80 131 0.0 2.0 0.00 2.38 2.39 92 1015.1
20260904222833 80 97 0.0 0.0 0.01 2.38 2.38 92 1015.2
20260904222331 80 97 0.0 0.0 0.03 2.38 2.38 92 1015.2
20260904221831 80 97 0.0 0.0 0.10 2.38 2.38 92 1015.4
20260904221533 79 97 0.0 0.0 0.14 2.38 2.38 92 1015.3
20260904221330 80 97 0.0 0.0 0.17 2.38 2.38 92 1015.4
20260904220829 80 97 0.0 0.0 0.25 2.38 2.38 92 1015.3
20260904220326 80 97 0.0 0.0 0.36 2.38 2.38 92 1015.3
20260904220055 80 97 0.0 0.0 0.46 2.38 2.38 92 1015.3
20260904215823 80 97 0.0 0.0 0.53 2.38 2.38 92 1015.4
20260904215322 80 97 0.0 0.0 0.60 2.38 2.38 92 1015.2
20260904214840 80 97 0.0 2.0 0.81 2.38 2.38 92 1015.2
20260904214513 80 97 0.0 2.0 1.07 2.38 2.38 92 1015.2
20260904214318 80 97 0.0 2.0 1.20 2.38 2.38 92 1015.2
20260904213815 80 158 0.0 0.0 1.39 2.38 2.38 91 1015.3
20260904213334 80 158 0.0 0.0 1.42 2.38 2.38 91 1015.3
20260904213004 79 158 0.0 0.0 1.42 2.38 2.38 90 1015.2
20260904212831 79 158 0.0 0.0 1.41 2.37 2.37 90 1015.2
20260904212329 79 148 0.0 0.0 1.39 2.35 2.35 88 1015.3
20260904211827 78 148 0.0 4.0 1.32 2.28 2.28 87 1015.5
20260904211557 78 148 0.0 4.0 1.28 2.24 2.24 87 1015.5
20260904211325 78 148 0.0 4.0 1.25 2.21 2.21 87 1015.7
20260904210823 78 134 0.0 9.0 1.15 2.11 2.11 86 1015.9
20260904210321 78 152 3.0 10.0 1.04 2.00 2.00 85 1016.0
20260904210041 78 278 3.0 10.0 0.95 1.91 1.91 85 1015.7
20260904205819 79 184 4.0 11.0 0.88 1.84 1.84 86 1015.9
20260904205317 81 103 4.0 11.0 0.82 1.78 1.78 88 1016.0
20260904204833 81 142 6.0 16.0 0.61 1.57 1.57 87 1016.2
20260904204523 81 126 8.0 16.0 0.28 1.25 1.31 86 1016.1
20260904204330 82 129 12.0 16.0 0.20 1.16 1.18 87 1016.1
20260904203827 83 42 3.0 6.0 0.04 0.99 0.99 87 1015.7
20260904203347 83 28 3.0 5.0 0.06 0.96 0.96 85 1015.6
20260904203050 83 1 2.0 5.0 0.13 0.96 0.96 85 1015.5
20260904202822 83 333 2.0 5.0 0.28 0.96 0.96 85 1015.8
20260904202321 84 50 2.0 7.0 0.64 0.96 0.96 84 1015.9
20260904201818 85 27 2.0 7.0 0.91 0.96 0.96 84 1015.9
20260904201537 84 342 4.0 7.0 0.96 0.96 0.96 84 1015.8
20260904201359 85 352 3.0 7.0 0.96 0.96 0.96 84 1016.1
20260904200855 84 358 2.0 5.0 0.96 0.96 0.96 85 1016.2
20260904200332 84 352 3.0 8.0 0.96 0.96 0.96 85 1016.3
20260904200033 83 332 3.0 8.0 0.96 0.96 0.96 86 1016.1
20260904195828 83 349 4.0 8.0 0.96 0.96 0.96 87 1016.1
20260904195327 82 44 0.0 1.0 0.96 0.96 0.96 88 1015.9
20260904194825 82 50 0.0 2.0 0.96 0.96 0.96 88 1016.1
20260904194524 81 133 0.0 3.0 0.96 0.96 0.96 88 1016.1
20260904194324 81 55 0.0 7.0 0.96 0.96 0.96 87 1016.2
20260904193820 81 71 1.0 7.0 0.95 0.95 0.95 84 1016.2
20260904193318 80 215 3.0 7.0 0.90 0.90 0.90 83 1016.2
20260904193011 80 169 2.0 19.0 0.73 0.73 0.79 82 1016.1
20260904192815 81 347 3.0 21.0 0.68 0.68 0.68 81 1016.3
20260904192333 84 155 5.0 21.0 0.32 0.32 0.32 81 1016.7
20260904191829 89 105 6.0 12.0 0.05 0.05 0.05 82 1016.2
20260904191553 90 133 7.0 11.0 0.00 0.00 0.00 81 1016.0
20260904191346 90 117 7.0 11.0 0.00 0.00 0.00 80 1015.9
20260904190822 90 135 4.0 7.0 0.00 0.00 0.00 80 1016.0
20260904190321 90 145 3.0 6.0 0.00 0.00 0.00 80 1016.1
20260904190024 90 112 3.0 6.0 0.00 0.00 0.00 79 1016.1
20260904185818 91 129 3.0 6.0 0.00 0.00 0.00 79 1016.2
20260904185315 91 127 3.0 8.0 0.00 0.00 0.00 79 1016.1
20260904184830 91 164 3.0 8.0 0.00 0.00 0.00 79 1016.1
20260904184505 90 128 2.0 7.0 0.00 0.00 0.00 78 1016.2
20260904184327 91 119 4.0 7.0 0.00 0.00 0.00 78 1016.4
20260904183824 91 127 4.0 7.0 0.00 0.00 0.00 78 1016.5
20260904183343 91 121 4.0 7.0 0.00 0.00 0.00 79 1016.5
20260904183028 90 111 3.0 7.0 0.00 0.00 0.00 78 1016.3
20260904182840 91 153 4.0 10.0 0.00 0.00 0.00 78 1016.5
20260904182357 91 153 3.0 10.0 0.00 0.00 0.00 79 1016.3
20260904181852 91 141 7.0 11.0 0.00 0.00 0.00 78 1016.2
20260904181530 91 150 5.0 11.0 0.00 0.00 0.00 78 1016.1
20260904181329 91 127 6.0 11.0 0.00 0.00 0.00 78 1016.2
20260904180847 91 150 4.0 11.0 0.00 0.00 0.00 78 1016.2
20260904180342 91 148 4.0 11.0 0.00 0.00 0.00 78 1016.3
20260904180041 91 143 6.0 11.0 0.00 0.00 0.00 77 1016.4
20260904175819 92 126 5.0 10.0 0.00 0.00 0.00 76 1016.5
20260904175316 93 174 1.0 5.0 0.00 0.00 0.00 76 1016.5
20260904174832 93 96 0.0 4.0 0.00 0.00 0.00 76 1016.6
20260904174525 92 138 0.0 4.0 0.00 0.00 0.00 76 1016.5
20260904174344 93 129 2.0 4.0 0.00 0.00 0.00 75 1016.6
20260904173820 92 156 1.0 6.0 0.00 0.00 0.00 75 1016.8
20260904173338 92 127 2.0 6.0 0.00 0.00 0.00 75 1016.8
20260904173043 92 134 3.0 9.0 0.00 0.00 0.00 76 1016.8
20260904172855 92 180 4.0 9.0 0.00 0.00 0.00 77 1016.9
20260904172332 92 137 4.0 9.0 0.00 0.00 0.00 77 1017.0
20260904171828 92 113 2.0 8.0 0.00 0.00 0.00 76 1017.0
20260904171507 91 131 0.0 7.0 0.00 0.00 0.00 78 1016.9
20260904171325 91 191 1.0 7.0 0.00 0.00 0.00 77 1016.9
20260904170841 92 114 3.0 7.0 0.00 0.00 0.00 76 1017.1
20260904170337 91 186 1.0 5.0 0.00 0.00 0.00 80 1017.1
20260904170006 90 120 0.0 5.0 0.00 0.00 0.00 80 1017.1
20260904165833 91 161 1.0 5.0 0.00 0.00 0.00 80 1017.2
20260904165330 91 102 0.0 6.0 0.00 0.00 0.00 80 1017.2
20260904164828 91 113 2.0 8.0 0.00 0.00 0.00 78 1017.3
20260904164548 90 109 1.0 8.0 0.00 0.00 0.00 77 1017.3
20260904164326 91 104 1.0 8.0 0.00 0.00 0.00 77 1017.5
20260904163824 91 128 4.0 7.0 0.00 0.00 0.00 75 1017.5
20260904163323 91 148 3.0 7.0 0.00 0.00 0.00 76 1017.4
20260904163029 91 127 3.0 7.0 0.00 0.00 0.00 76 1017.4
20260904162819 91 127 2.0 7.0 0.00 0.00 0.00 76 1017.4
20260904162336 91 86 4.0 8.0 0.00 0.00 0.00 77 1017.4
20260904161834 91 111 3.0 8.0 0.00 0.00 0.00 76 1017.4
20260904161549 91 148 4.0 9.0 0.00 0.00 0.00 77 1017.4
20260904161331 91 145 3.0 9.0 0.00 0.00 0.00 77 1017.6
20260904160848 92 122 4.0 9.0 0.00 0.00 0.00 77 1017.7
20260904160325 92 143 3.0 6.0 0.00 0.00 0.00 76 1017.6
20260904160019 92 139 1.0 8.0 0.00 0.00 0.00 77 1017.5
20260904155820 92 217 1.0 8.0 0.00 0.00 0.00 78 1017.5
20260904155316 91 196 4.0 8.0 0.00 0.00 0.00 78 1017.5
20260904154834 91 191 2.0 5.0 0.00 0.00 0.00 80 1017.5
20260904154535 90 106 1.0 5.0 0.00 0.00 0.00 80 1017.3
20260904154330 90 120 2.0 5.0 0.00 0.00 0.00 81 1017.4
20260904153829 88 79 1.0 5.0 0.00 0.00 0.00 82 1017.4
20260904153326 88 76 2.0 6.0 0.00 0.00 0.00 83 1017.4
20260904153022 87 112 2.0 6.0 0.00 0.00 0.00 83 1017.3
20260904152825 87 124 2.0 6.0 0.00 0.00 0.00 83 1017.4
20260904152321 87 136 3.0 6.0 0.00 0.00 0.00 83 1017.5
20260904151819 87 110 3.0 5.0 0.00 0.00 0.00 83 1017.7
20260904151538 86 132 2.0 4.0 0.00 0.00 0.00 83 1017.5
20260904151338 87 122 2.0 4.0 0.00 0.00 0.00 83 1017.6
20260904150814 87 136 1.0 2.0 0.00 0.00 0.00 83 1017.7
20260904150355 87 120 1.0 4.0 0.00 0.00 0.00 84 1017.6
20260904150048 86 70 0.0 5.0 0.00 0.00 0.00 84 1017.5
20260904145830 86 91 1.0 5.0 0.00 0.00 0.00 84 1017.6
20260904145328 86 122 2.0 5.0 0.00 0.00 0.00 84 1017.5
20260904144824 85 127 1.0 4.0 0.00 0.00 0.00 85 1017.3
20260904144539 85 134 1.0 4.0 0.00 0.00 0.00 85 1017.2
20260904144322 85 126 0.0 0.0 0.00 0.00 0.00 85 1017.3
20260904143819 85 131 0.0 0.0 0.00 0.00 0.00 85 1017.3
20260904143317 85 115 0.0 3.0 0.00 0.00 0.00 85 1017.2
20260904143023 84 149 0.0 3.0 0.00 0.00 0.00 85 1017.2
20260904142815 85 83 1.0 3.0 0.00 0.00 0.00 84 1017.3
20260904142331 85 109 1.0 6.0 0.00 0.00 0.00 84 1017.3
20260904141827 85 146 4.0 6.0 0.00 0.00 0.00 84 1017.2
20260904141522 85 132 2.0 6.0 0.00 0.00 0.00 84 1017.0
20260904141325 85 127 3.0 6.0 0.00 0.00 0.00 84 1017.1
20260904140822 86 127 4.0 8.0 0.00 0.00 0.00 83 1017.1
20260904140316 87 134 3.0 8.0 0.00 0.00 0.00 82 1017.0
20260904140005 87 159 4.0 8.0 0.00 0.00 0.00 82 1016.8
20260904135814 88 123 4.0 6.0 0.00 0.00 0.00 82 1017.0
20260904135333 89 202 1.0 5.0 0.00 0.00 0.00 82 1017.0
20260904134831 89 109 2.0 5.0 0.00 0.00 0.00 81 1017.0
20260904134554 89 114 1.0 7.0 0.00 0.00 0.00 81 1016.9
20260904134329 90 150 2.0 7.0 0.00 0.00 0.00 81 1016.9
20260904133827 91 118 4.0 7.0 0.00 0.00 0.00 81 1016.8
20260904133323 91 170 0.0 3.0 0.00 0.00 0.00 81 1016.9
20260904133030 91 284 0.0 3.0 0.00 0.00 0.00 81 1016.7
20260904132821 92 123 0.0 2.0 0.00 0.00 0.00 81 1016.9
20260904132340 92 125 0.0 2.0 0.00 0.00 0.00 81 1016.7
20260904131837 91 141 0.0 2.0 0.00 0.00 0.00 81 1016.7
20260904131553 91 141 1.0 2.0 0.00 0.00 0.00 81 1016.7
20260904131353 91 157 1.0 2.0 0.00 0.00 0.00 81 1016.8
20260904130849 91 129 1.0 2.0 0.00 0.00 0.00 81 1016.7
20260904130324 91 124 0.0 2.0 0.00 0.00 0.00 82 1016.7
20260904130053 90 168 0.0 2.0 0.00 0.00 0.00 82 1016.5
20260904125821 90 140 1.0 2.0 0.00 0.00 0.00 82 1016.6
20260904125338 89 134 1.0 4.0 0.00 0.00 0.00 83 1016.5
20260904124855 88 127 1.0 6.0 0.00 0.00 0.00 83 1016.6
20260904124511 88 169 2.0 6.0 0.00 0.00 0.00 83 1016.4
20260904124329 88 107 1.0 6.0 0.00 0.00 0.00 83 1016.5
20260904123826 89 131 0.0 0.0 0.00 0.00 0.00 83 1016.5
20260904123324 88 146 0.0 0.0 0.00 0.00 0.00 84 1016.5
20260904123037 87 146 0.0 0.0 0.00 0.00 0.00 85 1016.4
20260904122820 87 127 0.0 0.0 0.00 0.00 0.00 86 1016.4
20260904122317 87 127 0.0 0.0 0.00 0.00 0.00 89 1016.4
20260904121834 85 127 0.0 0.0 0.00 0.00 0.00 91 1016.4
20260904121517 84 127 0.0 0.0 0.00 0.00 0.00 92 1016.3
20260904121329 84 127 0.0 0.0 0.00 0.00 0.00 93 1016.3
20260904120820 84 127 0.0 0.0 0.00 0.00 0.00 93 1016.3
20260904120318 83 127 0.0 0.0 0.00 0.00 0.00 94 1016.4
20260904120016 82 127 0.0 0.0 0.00 0.00 0.00 94 1016.2
20260904115833 82 127 0.0 0.0 0.00 0.00 0.00 94 1016.3
20260904115329 81 127 0.0 0.0 0.00 0.00 0.00 93 1016.3
20260904114825 80 127 0.0 0.0 0.00 0.00 0.00 93 1016.1
20260904114539 79 127 0.0 0.0 0.00 0.00 0.00 93 1016.0
20260904114322 80 127 0.0 0.0 0.00 0.00 0.00 93 1016.2
20260904113820 80 127 0.0 0.0 0.00 0.00 0.00 93 1016.1
20260904113317 79 127 0.0 0.0 0.00 0.00 0.00 93 1016.2
20260904113020 79 127 0.0 0.0 0.00 0.00 0.00 93 1016.0
20260904112815 79 127 0.0 0.0 0.00 0.00 0.00 93 1016.1
20260904112333 79 127 0.0 0.0 0.00 0.00 0.00 93 1016.0
20260904111852 79 127 0.0 0.0 0.00 0.00 0.00 93 1016.1
20260904111550 79 127 0.0 0.0 0.00 0.00 0.00 93 1016.0
20260904111327 80 127 0.0 0.0 0.00 0.00 0.00 93 1016.0
20260904110825 80 127 0.0 0.0 0.00 0.00 0.00 93 1016.0
20260904110323 80 127 0.0 0.0 0.00 0.00 0.00 93 1015.9
20260904110010 79 127 0.0 0.0 0.00 0.00 0.00 93 1015.8
20260904105819 80 127 0.0 0.0 0.00 0.00 0.00 93 1015.8
20260904105315 80 127 0.0 0.0 0.00 0.00 0.00 93 1015.7
20260904104831 80 127 0.0 0.0 0.00 0.00 0.00 93 1015.7
20260904104553 79 127 0.0 0.0 0.00 0.00 0.00 93 1015.6
20260904104346 80 127 0.0 0.0 0.00 0.00 0.00 93 1015.6
20260904103824 80 127 0.0 0.0 0.00 0.00 0.00 93 1015.7
20260904103320 80 127 0.0 0.0 0.00 0.00 0.00 93 1015.6
20260904103022 79 127 0.0 0.0 0.00 0.00 0.00 93 1015.4
20260904102838 80 127 0.0 0.0 0.00 0.00 0.00 93 1015.6
20260904102315 80 127 0.0 0.0 0.00 0.00 0.00 93 1015.5
20260904101833 80 127 0.0 0.0 0.00 0.00 0.00 92 1015.4
20260904101549 79 127 0.0 0.0 0.00 0.00 0.00 92 1015.3
20260904101330 80 127 0.0 0.0 0.00 0.00 0.00 92 1015.5
20260904100828 80 127 0.0 0.0 0.00 0.00 0.00 92 1015.4
20260904100325 80 127 0.0 0.0 0.00 0.00 0.00 92 1015.3
20260904100034 80 127 0.0 0.0 0.00 0.00 0.00 92 1015.2
20260904095842 80 127 0.0 0.0 0.00 0.00 0.00 92 1015.3
20260904095318 81 127 0.0 0.0 0.00 0.00 0.00 92 1015.2
20260904094816 81 127 0.0 0.0 0.00 0.00 0.00 92 1015.1
20260904094601 80 127 0.0 0.0 0.00 0.00 0.00 92 1014.9
20260904094503 80 127 0.0 0.0 0.00 0.00 0.00 92 1014.9
20260904094316 80 127 0.0 0.0 0.00 0.00 0.00 92 1015.0
20260904093834 80 127 0.0 0.0 0.00 0.00 0.00 92 1015.1
20260904093352 80 127 0.0 0.0 0.00 0.00 0.00 92 1015.0
20260904093027 80 127 0.0 0.0 0.00 0.00 0.00 92 1014.9
20260904092845 81 127 0.0 0.0 0.00 0.00 0.00 92 1014.9
20260904092340 81 127 0.0 0.0 0.00 0.00 0.00 92 1015.0
20260904091836 81 127 0.0 0.0 0.00 0.00 0.00 92 1015.0
20260904091506 80 127 0.0 0.0 0.00 0.00 0.00 92 1014.8
20260904091332 81 127 0.0 0.0 0.00 0.00 0.00 92 1014.9
20260904090828 81 127 0.0 0.0 0.00 0.00 0.00 92 1015.0
20260904090325 81 127 0.0 0.0 0.00 0.00 0.00 92 1014.9
20260904090051 80 127 0.0 0.0 0.00 0.00 0.00 92 1014.8
20260904085824 80 127 0.0 0.0 0.00 0.00 0.00 92 1014.9
20260904085321 80 127 0.0 0.0 0.00 0.00 0.00 92 1014.8
20260904084818 80 127 0.0 0.0 0.00 0.00 0.00 92 1014.8
20260904084538 80 127 0.0 0.0 0.00 0.00 0.00 92 1014.7
20260904084317 80 127 0.0 0.0 0.00 0.00 0.00 92 1014.8
20260904083814 80 127 0.0 0.0 0.00 0.00 0.00 92 1014.8
20260904083333 80 127 0.0 0.0 0.00 0.00 0.00 92 1014.8
20260904083024 80 127 0.0 0.0 0.00 0.00 0.00 92 1014.7
20260904082830 80 127 0.0 0.0 0.00 0.00 0.00 92 1014.7
20260904082328 80 127 0.0 0.0 0.00 0.00 0.00 91 1014.7
20260904081847 80 127 0.0 0.0 0.00 0.00 0.00 91 1014.7
20260904081550 79 127 0.0 0.0 0.00 0.00 0.00 91 1014.5
20260904081323 80 127 0.0 0.0 0.00 0.00 0.00 91 1014.7
20260904080820 80 127 0.0 0.0 0.00 0.00 0.00 91 1014.7
20260904080319 80 127 0.0 0.0 0.00 0.00 0.00 91 1014.7
20260904080038 80 127 0.0 0.0 0.00 0.00 0.00 91 1014.6
20260904075817 80 127 0.0 0.0 0.00 0.00 0.00 91 1014.7
20260904075314 80 127 0.0 0.0 0.00 0.00 0.00 91 1014.6
20260904074832 80 127 0.0 0.0 0.00 0.00 0.00 91 1014.6
20260904074530 80 127 0.0 0.0 0.00 0.00 0.00 91 1014.5
20260904074329 81 127 0.0 0.0 0.00 0.00 0.00 91 1014.5
20260904073826 81 127 0.0 0.0 0.00 0.00 0.00 91 1014.6
20260904073322 80 127 0.0 0.0 0.00 0.00 0.00 90 1014.7
20260904073013 80 127 0.0 0.0 0.00 0.00 0.00 90 1014.7
20260904072819 81 127 0.0 0.0 0.00 0.00 0.00 90 1014.8
20260904072336 81 127 0.0 0.0 0.00 0.00 0.00 90 1014.8
20260904071855 81 127 0.0 0.0 0.00 0.00 0.00 90 1014.8
20260904071536 80 127 0.0 0.0 0.00 0.00 0.00 90 1014.7
20260904071350 81 127 0.0 0.0 0.00 0.00 0.00 90 1014.8
20260904070848 81 127 0.0 0.0 0.00 0.00 0.00 90 1014.9
20260904070324 81 127 0.0 0.0 0.00 0.00 0.00 90 1014.8
20260904070039 80 127 0.0 0.0 0.00 0.00 0.00 90 1014.7
20260904065820 81 127 0.0 0.0 0.00 0.00 0.00 90 1014.8
20260904065337 81 127 0.0 0.0 0.00 0.00 0.00 90 1014.8
20260904064833 81 127 0.0 0.0 0.00 0.00 0.00 90 1014.9
20260904064555 81 127 0.0 0.0 0.00 0.00 0.00 90 1014.8
20260904064329 81 127 0.0 0.0 0.00 0.00 0.00 90 1014.9
20260904063828 81 127 0.0 0.0 0.00 0.00 0.00 90 1014.9
20260904063325 81 127 0.0 0.0 0.00 0.00 0.00 90 1015.0
20260904063050 81 127 0.0 0.0 0.00 0.00 0.00 90 1014.9
20260904062822 81 127 0.0 0.0 0.00 0.00 0.00 90 1015.0
20260904062319 81 127 0.0 0.0 0.00 0.00 0.00 90 1015.1
20260904061816 81 127 0.0 0.0 0.00 0.00 0.00 90 1015.0
20260904061529 81 127 0.0 0.0 0.00 0.00 0.00 90 1015.0
20260904061330 81 127 0.0 0.0 0.00 0.00 0.00 90 1015.1
20260904060829 81 127 0.0 0.0 0.00 0.00 0.00 89 1015.2
20260904060325 82 127 0.0 0.0 0.00 0.00 0.00 89 1015.1
20260904060018 81 127 0.0 0.0 0.00 0.00 0.00 89 1015.0
20260904055823 82 127 0.0 0.0 0.00 0.00 0.00 89 1015.2
20260904055320 82 127 0.0 0.0 0.00 0.00 0.00 89 1015.3
20260904054817 82 127 0.0 0.0 0.00 0.00 0.00 89 1015.3
20260904054558 81 127 0.0 0.0 0.00 0.00 0.00 89 1015.1
20260904054316 82 127 0.0 0.0 0.00 0.00 0.00 89 1015.2
20260904053835 82 127 0.0 0.0 0.00 0.00 0.00 89 1015.4
20260904053350 82 122 0.0 0.0 0.00 0.00 0.00 89 1015.3
20260904053025 81 122 0.0 0.0 0.00 0.00 0.00 89 1015.2
20260904052824 82 122 0.0 0.0 0.00 0.00 0.00 90 1015.3
20260904052323 82 122 0.0 0.0 0.00 0.00 0.00 90 1015.4
20260904051819 82 115 0.0 0.0 0.00 0.00 0.00 91 1015.5
20260904051539 81 115 0.0 0.0 0.00 0.00 0.00 91 1015.4
20260904051337 82 115 0.0 0.0 0.00 0.00 0.00 90 1015.5
20260904050834 82 115 0.0 0.0 0.00 0.00 0.00 90 1015.5
20260904050332 82 115 0.0 0.0 0.00 0.00 0.00 91 1015.5
20260904050045 81 115 0.0 0.0 0.00 0.00 0.00 91 1015.4
20260904045824 82 115 0.0 0.0 0.00 0.07 0.00 91 1015.5
20260904045321 81 115 0.0 0.0 0.00 0.07 0.00 90 1015.5
20260904044819 81 115 0.0 0.0 0.00 0.07 0.00 90 1015.6
20260904044533 81 115 0.0 0.0 0.00 0.07 0.00 90 1015.4
20260904044316 81 115 0.0 0.0 0.00 0.07 0.00 90 1015.5
20260904043832 81 115 0.0 0.0 0.00 0.07 0.00 90 1015.6
20260904043329 81 115 0.0 0.0 0.00 0.07 0.00 90 1015.8
20260904043015 81 115 0.0 0.0 0.00 0.07 0.00 90 1015.7
20260904042846 81 115 0.0 0.0 0.00 0.07 0.00 90 1015.8
20260904042322 81 115 0.0 0.0 0.00 0.07 0.00 90 1015.9
20260904041821 82 115 0.0 0.0 0.00 0.07 0.00 90 1015.8
20260904041542 81 115 0.0 0.0 0.00 0.07 0.00 90 1015.7
20260904041318 82 115 0.0 0.0 0.00 0.07 0.00 90 1015.8
20260904040816 82 115 0.0 0.0 0.00 0.07 0.00 90 1015.9
20260904040314 82 115 0.0 0.0 0.00 0.07 0.00 90 1015.9
20260904040033 81 115 0.0 0.0 0.00 0.85 0.00 90 1015.7
20260904035830 81 115 0.0 0.0 0.00 0.85 0.07 90 1015.8
20260904035328 81 115 0.0 0.0 0.00 0.85 0.07 89 1015.8
20260904034826 82 115 0.0 0.0 0.00 0.85 0.07 89 1015.9
20260904034508 81 115 0.0 0.0 0.00 0.85 0.07 89 1015.6
20260904034323 82 115 0.0 0.0 0.00 0.85 0.07 89 1015.8
20260904033820 82 115 0.0 0.0 0.00 0.85 0.07 89 1015.9
20260904033338 82 115 0.0 0.0 0.00 0.85 0.07 89 1015.9
20260904033027 81 115 0.0 0.0 0.00 0.85 0.07 89 1015.9
20260904032834 82 115 0.0 0.0 0.00 0.85 0.07 89 1016.0
20260904032333 82 115 0.0 0.0 0.00 0.85 0.07 89 1016.0